CW6018 Weather Reports


time (UTC)temp
C
wind
direction
speed
KPH
gust
KPH
rain 1hr
cm
rain 24hr
cm
rain mn
cm
humidity
%
barometer
mb
20260507060419 7 0 8.0 9.7 0.00 0.00 0.00 60 1014.1
20260507055439 7 0 8.0 9.7 0.00 0.00 0.00 60 1014.0
20260507054418 7 68 3.2 4.8 0.00 0.00 0.00 65 1014.0
20260507053419 6 0 8.0 11.3 0.00 0.00 0.00 66 1013.9
20260507052418 6 68 3.2 8.0 0.00 0.00 0.00 69 1013.8
20260507051439 6 23 4.8 8.0 0.00 0.00 0.00 70 1013.7
20260507050438 6 45 3.2 6.4 0.00 0.00 0.00 73 1013.6
20260507045419 6 0 4.8 6.4 0.00 0.00 0.00 74 1013.6
20260507044418 6 338 6.4 9.7 0.00 0.00 0.00 75 1013.5
20260507043418 6 0.0 0.0 0.00 0.00 0.00 76 1013.4
20260507042418 6 0.0 0.0 0.00 0.00 0.00 77 1013.2
20260507041419 5 0.0 0.0 0.00 0.00 0.00 77 1013.2
20260507040418 5 0.0 0.0 0.00 0.00 0.00 77 1013.0
20260507035418 5 45 3.2 4.8 0.00 0.00 0.00 78 1012.9
20260507034438 5 45 3.2 4.8 0.00 0.00 0.00 78 1012.8
20260507033440 4 45 3.2 3.2 0.00 0.00 0.00 78 1012.8
20260507032419 4 45 4.8 6.4 0.00 0.00 0.00 78 1012.7
20260507031420 4 23 1.6 4.8 0.00 0.00 0.00 78 1012.7
20260507030420 4 0 1.6 4.8 0.00 0.00 0.00 78 1012.6
20260507025420 5 0 3.2 3.2 0.00 0.00 0.00 77 1012.7
20260507024419 5 68 4.8 4.8 0.00 0.00 0.00 76 1012.6
20260507023420 6 0.0 0.0 0.00 0.00 0.00 76 1012.5
20260507022420 6 0.0 0.0 0.00 0.00 0.00 77 1012.5
20260507021420 6 0.0 0.0 0.00 0.00 0.00 77 1012.4
20260507020419 6 135 3.2 4.8 0.00 0.00 0.00 77 1012.4
20260507015419 6 135 4.8 6.4 0.00 0.00 0.00 77 1012.3
20260507014419 6 135 4.8 6.4 0.00 0.00 0.00 76 1012.2
20260507013419 6 135 3.2 4.8 0.00 0.00 0.00 75 1012.1
20260507012419 6 135 4.8 4.8 0.00 0.00 0.00 76 1012.1
20260507011439 6 135 4.8 6.4 0.00 0.00 0.00 76 1012.1
20260507010419 6 135 6.4 8.0 0.00 0.00 0.00 76 1012.1
20260507005419 6 0.0 0.0 0.00 0.00 0.00 75 1011.9
20260507004419 6 0.0 0.0 0.00 0.00 0.00 74 1012.0
20260507003419 6 0.0 0.0 0.00 0.00 0.00 73 1011.9
20260507002419 6 0.0 0.0 0.00 0.00 0.00 73 1011.9
20260507001419 6 0.0 0.0 0.00 0.00 0.00 73 1011.9
20260507000420 6 0.0 0.0 0.00 0.00 0.00 74 1011.8
20260506235419 6 0.0 0.0 0.00 0.00 0.00 73 1011.8
20260506234418 7 0 1.6 3.2 0.00 0.00 0.00 73 1011.7
20260506233418 7 293 6.4 8.0 0.00 0.00 0.00 73 1011.6
20260506232418 7 270 6.4 6.4 0.00 0.00 0.00 73 1011.7
20260506231419 7 293 8.0 8.0 0.00 0.00 0.00 72 1011.8
20260506230418 7 270 8.0 9.7 0.00 0.00 0.00 71 1011.7
20260506225438 6 315 9.7 11.3 0.00 0.00 0.00 71 1011.7
20260506224419 7 270 6.4 8.0 0.00 0.00 0.00 72 1011.7
20260506223418 7 315 6.4 8.0 0.00 0.00 0.00 72 1011.7
20260506222418 7 315 9.7 11.3 0.00 0.00 0.00 72 1011.7
20260506221418 7 315 12.9 16.1 0.00 0.00 0.00 72 1011.7
20260506220418 7 293 11.3 16.1 0.00 0.00 0.00 73 1011.6
20260506215419 7 315 11.3 12.9 0.00 0.00 0.00 71 1011.6
20260506214419 7 293 9.7 11.3 0.00 0.00 0.00 68 1011.6
20260506213418 7 315 11.3 14.5 0.00 0.00 0.00 67 1011.5
20260506212419 7 315 12.9 16.1 0.00 0.00 0.00 68 1011.4
20260506211419 7 315 14.5 17.7 0.00 0.00 0.00 68 1011.4
20260506210439 7 293 12.9 16.1 0.00 0.00 0.00 67 1011.3
20260506205419 7 293 11.3 16.1 0.00 0.00 0.00 67 1011.3
20260506204418 7 293 9.7 16.1 0.00 0.00 0.00 66 1011.3
20260506203438 7 315 12.9 16.1 0.00 0.00 0.00 64 1011.3
20260506202418 7 293 14.5 17.7 0.00 0.00 0.00 59 1011.2
20260506201418 7 315 14.5 17.7 0.00 0.00 0.00 58 1011.2
20260506200418 7 293 14.5 17.7 0.00 0.00 0.00 57 1011.1
20260506195418 7 315 11.3 16.1 0.00 0.00 0.00 56 1011.1
20260506194418 7 315 14.5 20.9 0.00 0.00 0.00 55 1011.1
20260506193418 8 293 9.7 11.3 0.00 0.00 0.00 52 1011.1
20260506192458 8 293 9.7 14.5 0.00 0.00 0.00 53 1010.8
20260506191420 8 293 8.0 11.3 0.00 0.00 0.00 52 1010.8
20260506190419 8 293 11.3 16.1 0.00 0.00 0.00 53 1010.7
20260506185440 8 293 12.9 16.1 0.00 0.00 0.00 52 1010.6
20260506184420 8 293 14.5 16.1 0.00 0.00 0.00 50 1010.6
20260506183420 9 293 12.9 19.3 0.00 0.00 0.00 51 1010.5
20260506182420 10 315 9.7 14.5 0.00 0.00 0.00 51 1010.5
20260506181419 10 315 14.5 19.3 0.00 0.00 0.00 51 1010.5
20260506180439 10 315 14.5 17.7 0.00 0.00 0.00 50 1010.4
20260506175419 10 315 12.9 17.7 0.00 0.00 0.00 49 1010.4
20260506174439 11 315 11.3 14.5 0.00 0.00 0.00 50 1010.4
20260506173439 11 315 11.3 14.5 0.00 0.00 0.00 51 1010.3
20260506172419 12 315 14.5 16.1 0.00 0.00 0.00 50 1010.4
20260506171419 12 315 8.0 12.9 0.00 0.00 0.00 50 1010.4
20260506170419 12 315 12.9 16.1 0.00 0.00 0.00 51 1010.4
20260506165419 12 338 12.9 16.1 0.00 0.00 0.00 53 1010.4
20260506164419 13 315 14.5 17.7 0.00 0.00 0.00 54 1010.5
20260506163419 13 315 12.9 16.1 0.00 0.00 0.00 52 1010.5
20260506162439 13 315 11.3 14.5 0.00 0.00 0.00 53 1010.5
20260506161419 13 315 12.9 17.7 0.00 0.00 0.00 52 1010.5
20260506160419 13 315 14.5 17.7 0.00 0.00 0.00 54 1010.4
20260506155419 14 315 14.5 17.7 0.00 0.00 0.00 54 1010.5
20260506154419 14 315 17.7 20.9 0.00 0.00 0.00 57 1010.5
20260506153419 13 315 12.9 16.1 0.00 0.00 0.00 58 1010.6
20260506152418 13 293 12.9 17.7 0.00 0.00 0.00 56 1010.6
20260506151419 14 315 14.5 16.1 0.00 0.00 0.00 55 1010.6
20260506150418 14 315 12.9 17.7 0.00 0.00 0.00 55 1010.6
20260506145418 15 315 17.7 20.9 0.00 0.00 0.00 54 1010.6
20260506144438 15 293 14.5 19.3 0.00 0.00 0.00 52 1010.8
20260506143418 15 315 11.3 19.3 0.00 0.00 0.00 51 1010.8
20260506142419 15 315 14.5 17.7 0.00 0.00 0.00 51 1010.9
20260506141418 15 315 8.0 11.3 0.00 0.00 0.00 52 1010.9
20260506140418 14 293 11.3 16.1 0.00 0.00 0.00 54 1010.8
20260506135418 14 293 14.5 16.1 0.00 0.00 0.00 53 1010.8
20260506134418 15 293 11.3 14.5 0.00 0.00 0.00 52 1010.8
20260506133418 15 293 9.7 11.3 0.00 0.00 0.00 51 1010.9
20260506132420 15 315 9.7 12.9 0.00 0.00 0.00 54 1011.0
20260506131420 15 315 12.9 14.5 0.00 0.00 0.00 56 1011.0
20260506130420 15 293 11.3 14.5 0.00 0.00 0.00 55 1011.0
20260506125420 15 293 9.7 14.5 0.00 0.00 0.00 54 1011.0
20260506124420 15 315 9.7 14.5 0.00 0.00 0.00 51 1011.0
20260506123419 14 270 12.9 17.7 0.00 0.00 0.00 53 1011.0
20260506122420 14 270 16.1 19.3 0.00 0.00 0.00 53 1011.1
20260506121419 14 293 14.5 17.7 0.00 0.00 0.00 55 1011.2
20260506120420 13 293 16.1 19.3 0.00 0.00 0.00 54 1011.3
20260506115419 13 270 14.5 19.3 0.00 0.00 0.00 55 1011.3
20260506114420 13 248 11.3 16.1 0.00 0.00 0.00 53 1011.3
20260506113440 11 270 20.9 25.7 0.00 0.00 0.00 60 1011.3
20260506112419 11 248 14.5 19.3 0.00 0.00 0.00 52 1011.4
20260506111419 12 248 14.5 17.7 0.00 0.00 0.00 53 1011.4
20260506110419 11 270 14.5 17.7 0.00 0.00 0.00 57 1011.4
20260506105419 11 248 16.1 19.3 0.00 0.00 0.00 57 1011.4
20260506104419 11 203 16.1 25.7 0.00 0.00 0.00 58 1011.4
20260506103439 10 248 14.5 17.7 0.00 0.00 0.00 57 1011.4
20260506102419 10 225 11.3 17.7 0.00 0.00 0.00 63 1011.4
20260506101419 10 180 11.3 17.7 0.00 0.00 0.00 58 1011.4
20260506100418 10 203 19.3 24.1 0.00 0.00 0.00 64 1011.4
20260506095419 9 180 17.7 22.5 0.00 0.00 0.00 62 1011.3
20260506094419 9 225 14.5 17.7 0.00 0.00 0.00 66 1011.4
20260506093419 9 180 17.7 22.5 0.00 0.00 0.00 62 1011.4
20260506092419 9 180 14.5 22.5 0.00 0.00 0.00 64 1011.5
20260506091418 9 203 11.3 19.3 0.00 0.00 0.00 61 1011.5
20260506090439 9 203 11.3 14.5 0.00 0.00 0.00 69 1011.5
20260506085418 9 203 16.1 19.3 0.00 0.00 0.00 68 1011.5
20260506084419 8 203 11.3 17.7 0.00 0.00 0.00 70 1011.5
20260506083418 8 203 11.3 14.5 0.00 0.00 0.00 72 1011.5
20260506082419 8 225 6.4 11.3 0.00 0.00 0.00 71 1011.5
20260506081418 9 225 12.9 16.1 0.00 0.00 0.00 71 1011.5
20260506080418 8 158 12.9 17.7 0.00 0.00 0.00 72 1011.6
20260506073418 8 135 17.7 22.5 0.00 0.00 0.00 73 1011.4
20260506072420 8 135 12.9 17.7 0.00 0.00 0.00 74 1011.3
20260506071420 8 135 9.7 14.5 0.00 0.00 0.00 73 1011.2
20260506070440 8 135 11.3 17.7 0.00 0.00 0.00 73 1011.2
20260506062420 7 113 12.9 19.3 0.00 0.00 0.00 76 1011.2
20260506061420 7 135 9.7 14.5 0.00 0.00 0.00 78 1011.2